Zurück zum Katalog

IRIDIUM 155

AktivKommunikationPO
NORAD 43573·PAYLOAD·🇺🇸 United States

Gestartet Jul 25, 2018 von Vandenberg Space Force Base

Loading…

Nächste Überflüge (nächste 24 Stunden)

TLE

AktuellSource: CelesTrak SupGP

Epoche: Sep 15, 2026, 01:37 UTC

1 43573C 18061E   26258.06770833 -.00000195  00000+0 -69878-4 0  2581
2 43573  86.4009  19.0789 0002162  93.4586  35.6590 14.34216278    18

Verfolge IRIDIUM 155 in Echtzeit mit AllMySat

Download on the App Store